STARLINK-32822, 62868

Orbit data source: Space-Track

STARLINK-32822, 62868 is a payload satellite owned by SpaceX/Seattle (US) in LEO that was launched on Sat, 01 Feb 2025 UTC via an FALCON 9 launch vehicle from the Air Force Western Test Range (AFWTR). Payload-class satellites include a variety of spacecraft equipped with specific instruments for various scientific and technological missions. These include communications satellites like Starlink; space stations such as the ISS; scientific satellites like the Hubble; Earth observation satellites from companies like Planet Labs, Umbra, and HawkEye 360; GPS; miniature CubeSats for education and research; and military/defense satellites.

Loading next visibility...
Identifier
62868, 2025-022Q
Orbit
LEO
Country
Flag of USUS
Related business
Manufacturer
SpaceX/Seattle
Mission
Operational Commercial Communications
Bus & Motor
STARLINK V2M, Unknown motor
Mass
730 kg wet, ~700 kg dry
Launch date (UTC)
2025-02-01 (1 year ago)
Launch vehicle
FALCON 9
Launch site
Air Force Western Test Range (AFWTR)
Object type
Payload
Rocket body
Debris
Shape & HBR
Box + 2 Pan, 17.7 m
Radar Cross Section
33.884 m², Large (>1 m²)

Expand to show TLE details & history
Last TLE update: 8 hours ago

TLE from 8 hours ago
0 STARLINK-32822
1 62868U 25022Q   26036.84313675  .00063936  00000-0  21490-2 0  9990
2 62868  53.1585 277.5826 0000685 144.2293 215.8753 15.30250128 57022
Epoch: 2026-02-05T20:14Z
TLE epoch observation values (Epoch: 2026-02-05T20:14:07.015Z)
Latitude
-0.00007°
Longitude
-161.93623°
Altitude
476.345 km
Speed
7.629 km/s
True Right ascension
18h 30m 19s
True Declination
0° 00' 00"
Sunlit
Object was in daylight at epoch
Visualization orbit readout
Latitude
Unknown
Longitude
Unknown
Altitude
Unknown
Speed
Unknown
Apparent Right ascension
Unknown
Apparent Declination
Unknown
Sunlit
N/A
Visualization observer readout
Local Sidereal Time
06:06:44
Azimuth
Unknown
Elevation
Unknown
Doppler factor
Unknown
Orbital elements
Apogee altitude
475.792 km
Perigee altitude
474.853 km
Semi-major axis
6,853.459 km
Eccentricity
0.00007
Inclination
53.1585°
RAAN
277.5826°
Arg. of periapsis
144.2293°
True anomaly
215.8707°
Mean anomaly
215.8753°
Eccentric anomaly
215.873°
Mean motion
3.82541 °/min
Orbital period
94.11 mins
BSTAR
0.002149
Loading maneuver chart data...
Computing Atmospheric mass density...
Loading historical data...
Loading historical data...
Loading historical data...
Loading historical data...
Loading historical data...
Loading historical data...
Loading historical data...

Documentation

Showing up to 5 results
|